Погода в Игрежинье

Бразилия     29°34′31″S   50°47′58″W
темп.,
°C
ветер,
м/с
пор.,
м/с
влажн.,
%
обл.,
%
осадки,
мм/ч
давл.,
гПа
погр.,
м
27 февраля, сб
сб2700:00+17св12910 0.0 101837
03:00+16ссв11970 0.0 101723
06:00+16ссз01980 0.0 101823
09:00+23ююв24711 0.0 1020747
12:00+27ююв245837 0.2 10201364
15:00+27вюв355548 1.2 10181515
18:00+24вюв36654 0.2 10181149
21:00+17в12931 0.2 101966
28 февраля, вс
вс2800:00+16ссв11960 0.0 101923
03:00+16в01937 0.0 101831
06:00+16ююз119358 0.0 101829
09:00+22юв146936 0.0 1018889
12:00+28юв35454 0.0 10171703
15:00+26юв366327 0.3 10151124
18:00+22ююв258133 0.2 1014597
21:00+19юв129744 0.3 101591
1 марта, пн
пн100:00+18в019947 0.0 101433
03:00+18сз019935 0.0 101224
06:00+17ссз019929 0.0 101323
09:00+25ююв116816 0.0 1013578
12:00+28ю125636 0.4 10121242
15:00+28ююв335837 1.0 10111272
18:00+24ююв24806 0.5 1010481
21:00+19ссв11998 0.5 101226
2 марта, вт
вт200:00+18ссв12982 0.0 101238
03:00+18ссв129623 0.0 101131
06:00+18с129414 0.0 101233
09:00+26ю01637 0.0 1013492
12:00+29ююв225228 0.4 10131289
15:00+29ююв235946 1.1 10111287
18:00+24ююв259234 1.4 1011303
21:00+20вюв019920 1.8 101424
3 марта, ср
ср300:00+19ссв119910 0.0 101430
03:00+19св119916 0.0 101423
06:00+18ссв119914 0.0 101429
09:00+24вюв017712 0.0 1016418
12:00+29ююв22608 0.4 10151065
15:00+29ю335916 1.4 10131180
18:00+25юв138143 0.4 1013288
21:00+20ссв119829 0.5 101530